Location: CCZU
(31.6840°N, 119.9550°E)
Time: 12:12:58
(UTC+08:00)

OTV 5 (USA 277) - Visible Passes

Search period start: 20 April 2019 00:00
Search period end: 30 April 2019 00:00
Orbit: 310 x 325 km, 54.5° (Epoch: 16 April)

Date Brightness Start Highest point End Pass type
(mag) Time Alt. Az. Time Alt. Az. Time Alt. Az.
21 Apr ? 04:33:33 10° NNW 04:35:45 22° NE 04:37:56 10° E visible
22 Apr ? 04:47:53 10° NW 04:50:33 88° NE 04:53:11 10° SE visible
22 Apr ? 19:30:18 10° S 19:32:38 26° SE 19:32:38 26° SE visible
23 Apr ? 03:29:22 10° N 03:30:53 14° NE 03:32:23 10° ENE visible
23 Apr ? 19:44:38 10° SW 19:47:20 69° NW 19:50:02 10° NE visible
24 Apr ? 03:45:24 38° NNE 03:45:46 41° NE 03:48:18 10° ESE visible
24 Apr ? 20:00:03 10° W 20:02:09 20° NW 20:04:15 10° N visible
25 Apr ? 04:02:52 11° SSE 04:02:52 11° SSE 04:03:00 10° SSE visible
27 Apr ? 19:10:59 10° WNW 19:12:13 12° NW 19:13:26 10° NNW visible
